Flag for Canada Weather past 2 weeks in Eureka, Nunavut Territory, Canada

Now
-38 °F

Sunny.


Feels Like: -52 °F
Forecast: -33 / -27 °F
Wind: 3 mph from Southeast

Location: Eureka

Current Time: Dec 21, 2014 at 6:51:12 AM

Latest Report: Dec 21, 2014 at 6:00 AM


Visibility: 15 mi

Pressure: 30.01 "Hg

Humidity: 65%

Dew point: -45 °F

Location of EurekaLocation

Historic Weather in Eureka — Graph

°F

Eureka temperature yesterday

Maximum temperature yesterday: -31 °F (at 12:00 AM)
Minimum temperature yesterday: -36 °F (at 11:00 AM)
Average temperature yesterday: -34 °F

Past Weeks' High & Low Weather Summary

 TemperatureHumidityPressure
High-4 °F (Dec 6, 7:00 AM)90% (Dec 21, 2:00 AM)30.35 "Hg (Dec 21, 2:00 AM)
Low-40 °F (Dec 10, 12:00 PM)51% (Dec 18, 9:00 AM)29.51 "Hg (Dec 6, 7:00 AM)
Average-32 °F66%29.98 "Hg
* Reported Dec 6 5:00 AM — Dec 21 5:00 AM, Eureka, Weather by CustomWeather, © 2014

Note: Actual official high and low records may vary slightly from our data, if they occured in-between our weather recording intervals... More about our weather records

Advertising

Eureka weather history for previous 24 hours

 ConditionsComfort  
Time TempWeatherWind HumidityBarometerVisibility
5:00 AM
Dec 21
-38 °FClear.No wind65%30.00 "Hg15 mi
4:00 AM-38 °FClear.No wind73%29.99 "Hg15 mi
3:00 AM-38 °FClear.3 mph65%29.98 "Hg15 mi
2:00 AM-38 °FClear.2 mph90%29.97 "Hg15 mi
1:00 AM-36 °FClear.3 mph66%29.96 "Hg15 mi
12:00 AM-38 °FSunny.2 mph73%29.96 "Hg15 mi
11:00 PM
Dec 20
-36 °FClear.2 mph66%29.96 "Hg15 mi
10:00 PM-36 °FClear.No wind66%29.95 "Hg15 mi
9:00 PM-36 °FClear.2 mph66%29.95 "Hg15 mi
8:00 PM-36 °FClear.2 mph66%29.95 "Hg15 mi
7:00 PM-36 °FClear.No wind66%29.96 "Hg15 mi
6:00 PM-35 °FSunny.No wind59%29.96 "Hg15 mi
5:00 PM-35 °FSunny.3 mph59%29.96 "Hg15 mi
4:00 PM-35 °FSunny.2 mph66%29.95 "Hg15 mi
3:00 PM-35 °FSunny.2 mph66%29.95 "Hg15 mi
2:00 PM-36 °FSunny.2 mph73%29.95 "Hg15 mi
1:00 PM-35 °FSunny.2 mph66%29.95 "Hg10 mi
12:00 PM-35 °FPassing clouds.2 mph66%29.95 "Hg15 mi
11:00 AM-36 °FSunny.5 mph66%29.96 "Hg15 mi
10:00 AM-33 °FSunny.No wind60%29.97 "Hg15 mi
9:00 AM-35 °FSunny.2 mph59%29.98 "Hg15 mi
8:00 AM-33 °FSunny.3 mph60%29.99 "Hg15 mi
7:00 AM-33 °FSunny.No wind66%30.00 "Hg15 mi
6:00 AM-33 °FSunny.2 mph74%30.01 "Hg15 mi
Weather by CustomWeather, © 2014

See weather overviewHow to use our weather pages